Weather History for KMKL - June, 2013

Change the Weather History Date:

Saturday, June 15, 2013

  Actual Average Record
Temperature  
Mean Temperature 73 °F 76 °F  
Max Temperature 87 °F 87 °F 99 °F (1952)
Min Temperature 58 °F 65 °F 54 °F (1955)
Degree Days  
Heating Degree Days 0 0  
Month to date heating degree days 0 0  
Since 1 June heating degree days 0 0  
Since 1 July heating degree days 3662 3572  
Cooling Degree Days 8 11  
Month to date cooling degree days 136 146  
Year to date cooling degree days 336 361  
Since 1 June cooling degree days 136 146  
Growing Degree Days 23 (Base 50)    
Moisture  
Dew Point 63 °F    
Average Humidity 72    
Maximum Humidity 100    
Minimum Humidity 43    
Precipitation  
Precipitation 0.00 in 0.16 in 2.66 in (1990)
Month to date precipitation 1.76 2.60  
Year to date precipitation 36.74 26.14  
Snow  
Snow 0.00 in 0.00 in - ()
Month to date snowfall 0.0 0.0  
Since 1 June snowfall 0.0 0.0  
Since 1 July snowfall 1.4 4.6  
Snow Depth 0.00 in    
Sea Level Pressure  
Sea Level Pressure 30.03 in    
Wind  
Wind Speed 2 mph (SSE)    
Max Wind Speed 12 mph    
Max Gust Speed 15 mph    
Visibility 9 miles    
Events      
T = Trace of Precipitation, MM = Missing Value Source: NWS Daily Summary

Daily Weather History Graph

Daily Weather History Graph

Search for Another Location

Airport or City:

Trip Planner

Search our weather history database for the weather conditions in past years. The results will help you decide how hot, cold, wet, or windy it might be!

Date:

Astronomy

Jun. 15, 2013 Rise Set
Actual Time 5:39 AM CDT 8:12 PM CDT
Civil Twilight 5:09 AM CDT 8:43 PM CDT
Nautical Twilight 4:32 AM CDT 9:20 PM CDT
Astronomical Twilight 3:51 AM CDT 10:01 PM CDT
Moon 12:02 PM CDT (6/15) No Moon Set
Length of Visible Light 15h 33m
Length of Day
14h 33m
Waxing Crescent, 40% of the Moon is Illuminated
Jun 15
Waxing Crescent
Jun 16
First Quarter
Jun 23
Full
Jun 29
Last Quarter
Jul 8
New

Hourly Weather History & Observations

Time (CDT) Temp. Heat Index Dew Point Humidity Pressure Visibility Wind Dir Wind Speed Gust Speed Precip Events Conditions
12:53 AM 63.0 °F - 61.0 °F 93% 30.04 in 10.0 mi Calm Calm - N/A   Clear
1:53 AM 61.0 °F - 60.1 °F 97% 30.03 in 9.0 mi Calm Calm - N/A   Clear
2:53 AM 62.1 °F - 60.1 °F 93% 30.03 in 8.0 mi Calm Calm - N/A   Clear
3:27 AM 60.8 °F - 59.0 °F 94% 30.04 in 1.8 mi Calm Calm - N/A   Clear
3:36 AM 60.8 °F - 60.8 °F 100% 30.04 in 3.0 mi Calm Calm - N/A   Clear
3:53 AM 61.0 °F - 60.1 °F 97% 30.03 in 6.0 mi Calm Calm - N/A   Clear
4:53 AM 60.1 °F - 57.9 °F 93% 30.04 in 6.0 mi Calm Calm - N/A   Clear
5:53 AM 59.0 °F - 57.9 °F 96% 30.04 in 5.0 mi Calm Calm - N/A   Clear
6:53 AM 64.9 °F - 61.0 °F 87% 30.06 in 10.0 mi Calm Calm - N/A   Clear
7:53 AM 69.1 °F - 63.0 °F 81% 30.07 in 10.0 mi ESE 3.5 mph - N/A   Clear
8:53 AM 75.9 °F - 64.0 °F 67% 30.07 in 10.0 mi Variable 4.6 mph - N/A   Clear
9:53 AM 78.1 °F - 63.0 °F 60% 30.08 in 10.0 mi East 3.5 mph - N/A   Clear
10:53 AM 81.0 °F 82.5 °F 64.0 °F 56% 30.08 in 10.0 mi South 3.5 mph - N/A   Clear
11:53 AM 82.0 °F 82.7 °F 61.0 °F 49% 30.06 in 10.0 mi South 4.6 mph - N/A   Clear
12:53 PM 82.9 °F 83.7 °F 62.1 °F 49% 30.04 in 10.0 mi Variable 3.5 mph - N/A   Clear
1:53 PM 84.9 °F 85.9 °F 63.0 °F 48% 30.04 in 10.0 mi SSE 6.9 mph - N/A   Clear
2:53 PM 84.9 °F 85.4 °F 62.1 °F 46% 30.03 in 10.0 mi South 5.8 mph - N/A   Clear
3:53 PM 87.1 °F 87.8 °F 63.0 °F 44% 30.01 in 10.0 mi SE 5.8 mph - N/A   Clear
4:53 PM 86.0 °F 86.8 °F 63.0 °F 46% 29.99 in 10.0 mi SSW 5.8 mph - N/A   Clear
5:53 PM 84.9 °F 86.1 °F 64.0 °F 49% 29.98 in 10.0 mi SSE 4.6 mph - N/A   Clear
6:53 PM 84.0 °F 85.8 °F 64.9 °F 53% 30.00 in 10.0 mi SSE 3.5 mph - N/A   Clear
7:53 PM 78.1 °F - 66.9 °F 68% 30.00 in 10.0 mi Calm Calm - N/A   Clear
8:53 PM 73.0 °F - 66.9 °F 81% 30.00 in 10.0 mi SE 3.5 mph - N/A   Clear
9:53 PM 73.0 °F - 66.9 °F 81% 30.02 in 10.0 mi Calm Calm - N/A   Clear
10:53 PM 70.0 °F - 66.9 °F 90% 30.02 in 10.0 mi Calm Calm - N/A   Clear
11:53 PM 69.1 °F - 66.9 °F 93% 30.02 in 10.0 mi Calm Calm - N/A   Clear